Location: Härggis
(46.9540°N, 8.4897°E)
Time: 02:39:57
(UTC+00:00)

Gblst 52 Del rocket - Pass Details

Date: 27 May 2022
Orbit: 805 x 1365 km, 51.5° (Epoch: 26 June)

Event Time Altitude Azimuth Distance (km) Brightness Sun altitude
Rises 02:51:19 0° 294° (WNW) 3,450 7.1 -7.2°
Reaches altitude 10° 02:53:53 10° 295° (WNW) 2,462 6.4 -6.9°
Maximum altitude 02:59:33 90° 224° (SW) 815 4.2 -6.2°
Drops below altitude 10° 03:05:03 10° 117° (ESE) 2,388 6.9 -5.5°
Sets 03:07:30 0° 117° (ESE) 3,339 7.6 -5.1°
